Weather reports worldwide

Advertisment
Jackson, ky, United States of America (2072838): temperature & dewpoint: 11.08.2019 21:00:00 - 17.08.2019 21:00:00 (EDT)Jackson, ky, United States of America (2072838): wind speed: 11.08.2019 21:00:00 - 17.08.2019 21:00:00 (EDT)Jackson, ky, United States of America (2072838): wind direction: 11.08.2019 21:00:00 - 17.08.2019 21:00:00 (EDT)Jackson, ky, United States of America (2072838): reduced air pressure: 11.08.2019 21:00:00 - 17.08.2019 21:00:00 (EDT)Jackson, ky, United States of America (2072838): visibility: 11.08.2019 21:00:00 - 17.08.2019 21:00:00 (EDT)Jackson, ky, United States of America (2072838): precipitation: 11.08.2019 21:00:00 - 17.08.2019 21:00:00 (EDT)
Date & Time tt [°C] td [°C] ff [km/h] ff [kn] dd ppp [hPa] vv [km] rr [mm]
17.08.2019 21:00:00 26,7 18,9 0 0 N 1014,5 16 -
17.08.2019 20:00:00 28,9 20,0 0 0 N 1014,3 16 -
17.08.2019 19:00:00 30,6 18,9 0 0 N 1014,6 16 -
17.08.2019 18:00:00 31,1 18,9 5 3 SE 1014,9 16 -
17.08.2019 17:00:00 31,7 18,9 5 3 - 1014,9 16 -
17.08.2019 16:00:00 31,1 18,9 5 3 - 1015,1 16 -
17.08.2019 15:00:00 31,1 18,9 8 4 - 1015,6 16 -
17.08.2019 14:00:00 30,6 20,0 5 3 - 1016,2 16 -
17.08.2019 13:00:00 30,0 19,4 0 0 N 1017,1 16 -
17.08.2019 12:00:00 27,8 18,9 5 3 SSE 1016,8 16 -
17.08.2019 11:00:00 26,7 20,6 0 0 N 1017,1 16 -
17.08.2019 10:00:00 25,0 19,4 0 0 N 1016,7 16 -
17.08.2019 09:00:00 22,8 18,9 0 0 N 1016,6 16 -
17.08.2019 08:00:00 20,0 18,3 0 0 N 1016,2 16 -
17.08.2019 07:00:00 19,4 17,8 0 0 N 1015,1 16 -
17.08.2019 06:00:00 20,6 18,3 0 0 N 1014,5 16 -
17.08.2019 05:00:00 20,0 18,3 0 0 N 1015,0 16 -
17.08.2019 04:00:00 21,1 18,3 0 0 N 1014,9 16 -
17.08.2019 03:00:00 21,1 18,3 5 3 S 1014,8 16 -
17.08.2019 02:00:00 22,2 18,3 0 0 N 1015,3 16 -
17.08.2019 01:00:00 22,2 19,4 0 0 N 1015,5 16 -
17.08.2019 00:00:00 22,8 18,9 0 0 N 1015,4 16 -
16.08.2019 23:00:00 22,8 17,8 0 0 N 1015,2 16 -
16.08.2019 22:00:00 26,1 16,7 5 3 ESE 1014,9 16 -
16.08.2019 21:00:00 26,1 16,7 0 0 N 1014,9 16 -
16.08.2019 20:00:00 27,8 17,2 0 0 N 1014,6 16 -
16.08.2019 19:00:00 28,9 16,7 0 0 N 1014,5 16 -
16.08.2019 18:00:00 30,0 17,2 0 0 N 1014,6 16 -
16.08.2019 17:00:00 30,0 16,7 0 0 N 1015,1 16 -
16.08.2019 16:00:00 28,9 16,7 0 0 N 1015,7 16 -
16.08.2019 15:00:00 29,4 17,2 5 3 - 1016,0 16 -
16.08.2019 14:00:00 28,9 17,8 8 4 WNW 1016,2 16 -
16.08.2019 13:00:00 27,8 17,2 5 3 SSW 1016,2 16 -
16.08.2019 12:00:00 27,2 18,9 0 0 N 1016,6 16 -
16.08.2019 11:00:00 25,0 19,4 0 0 N 1016,9 16 -
16.08.2019 10:00:00 21,7 18,9 0 0 N 1016,5 16 -
16.08.2019 09:00:00 19,4 18,3 0 0 N 1016,3 16 -
16.08.2019 08:00:00 18,3 18,3 0 0 N 1015,9 16 -
16.08.2019 07:00:00 17,8 17,8 0 0 N 1015,3 16 -
16.08.2019 06:00:00 18,3 17,8 0 0 N 1014,7 16 -
16.08.2019 05:00:00 18,9 18,3 0 0 N 1015,2 16 -
16.08.2019 04:00:00 18,9 18,9 0 0 N 1015,3 16 -
16.08.2019 03:00:00 20,0 17,8 0 0 N 1014,8 16 -
16.08.2019 02:00:00 20,6 18,3 0 0 N 1015,0 16 -
16.08.2019 01:00:00 21,7 18,3 0 0 N 1014,9 16 -
16.08.2019 00:00:00 21,7 17,2 0 0 N 1015,1 16 -
15.08.2019 23:00:00 23,9 16,7 0 0 N 1014,9 16 -
15.08.2019 22:00:00 24,4 17,2 0 0 N 1014,5 16 -
15.08.2019 21:00:00 25,6 16,1 5 3 N 1013,9 16 -
15.08.2019 20:00:00 26,1 16,1 5 3 - 1013,7 16 -
15.08.2019 19:00:00 28,3 16,1 9 5 - 1013,6 16 -
15.08.2019 18:00:00 30,0 15,6 9 5 - 1013,4 16 -
15.08.2019 17:00:00 30,6 16,1 9 5 - 1013,2 16 -
15.08.2019 16:00:00 30,6 17,2 5 3 - 1013,5 16 -
15.08.2019 15:00:00 30,6 15,0 5 3 - 1013,6 16 -
15.08.2019 14:00:00 29,4 17,8 5 3 - 1014,4 13 -
15.08.2019 13:00:00 28,9 16,7 11 6 - 1014,9 16 -
15.08.2019 12:00:00 27,2 21,1 0 0 N 1015,1 16 -
15.08.2019 11:00:00 25,0 21,1 5 3 - 1015,6 16 -
15.08.2019 10:00:00 23,9 21,1 5 3 - 1015,4 16 -
15.08.2019 09:00:00 21,1 21,1 0 0 N 1014,7 15 -
15.08.2019 08:00:00 20,6 20,6 0 0 N 1014,7 8 -
15.08.2019 07:00:00 19,4 19,4 0 0 N 1014,1 4,8 -
15.08.2019 06:00:00 19,4 19,4 5 3 W 1013,4 15 -
15.08.2019 05:00:00 19,4 19,4 0 0 N 1013,1 4,8 0,0
15.08.2019 04:00:00 20,6 20,0 9 5 NW 1013,2 16 1,5
15.08.2019 03:00:00 22,2 20,0 5 3 WSW 1013,7 15 0,0
15.08.2019 02:00:00 22,8 21,1 8 4 WNW 1014,0 16 -
15.08.2019 01:00:00 23,3 21,1 0 0 N 1014,2 16 -
15.08.2019 00:00:00 23,9 20,6 0 0 N 1013,9 16 -
14.08.2019 23:00:00 24,4 20,0 0 0 N 1013,5 16 -
14.08.2019 22:00:00 25,0 20,6 0 0 N 1013,4 16 -
14.08.2019 21:00:00 25,6 20,6 0 0 N 1012,8 16 -
14.08.2019 20:00:00 27,2 20,6 0 0 N 1011,8 16 -
14.08.2019 19:00:00 28,9 19,4 5 3 - 1011,5 16 -
14.08.2019 18:00:00 29,4 19,4 8 4 - 1011,5 16 -
14.08.2019 17:00:00 30,6 20,6 0 0 N 1012,0 16 -
14.08.2019 16:00:00 30,0 20,0 9 5 - 1012,4 16 -
14.08.2019 15:00:00 30,0 20,6 5 3 - 1012,9 16 -
14.08.2019 14:00:00 29,4 20,6 9 5 - 1012,9 16 -
14.08.2019 13:00:00 28,9 20,6 9 5 - 1013,3 16 -
14.08.2019 12:00:00 27,8 21,1 8 4 - 1013,3 16 -
14.08.2019 11:00:00 26,7 21,7 5 3 - 1013,5 16 -
14.08.2019 10:00:00 24,4 21,7 0 0 N 1013,4 16 -
14.08.2019 09:00:00 24,4 22,8 0 0 N 1013,4 16 -
14.08.2019 08:00:00 22,2 22,2 0 0 N 1013,3 2,8 -
14.08.2019 07:00:00 21,7 21,7 0 0 N 1012,9 11 -
14.08.2019 06:00:00 22,2 22,2 0 0 N 1012,3 13 -
14.08.2019 05:00:00 21,7 21,7 0 0 N 1011,6 2,8 -
14.08.2019 04:00:00 22,2 22,2 0 0 N 1011,5 11 -
14.08.2019 03:00:00 22,2 22,2 0 0 N 1011,3 16 -
14.08.2019 02:00:00 22,2 22,2 0 0 N 1011,7 16 -
14.08.2019 01:00:00 22,8 22,2 5 3 SW 1011,5 16 -
14.08.2019 00:00:00 22,8 21,7 0 0 N 1011,4 16 -
13.08.2019 23:00:00 23,3 21,7 0 0 N 1010,7 16 -
13.08.2019 22:00:00 23,9 21,7 0 0 N 1010,4 16 -
13.08.2019 21:00:00 25,0 21,1 0 0 N 1010,3 16 -
13.08.2019 20:00:00 25,6 20,6 0 0 N 1010,4 16 -
13.08.2019 19:00:00 27,8 21,1 - - - 1009,8 16 -
13.08.2019 18:00:00 27,8 21,1 - - - 1009,4 16 -
13.08.2019 17:00:00 28,3 21,7 - - - 1009,7 16 -
13.08.2019 16:00:00 27,8 21,7 0 0 N 1010,2 16 -
13.08.2019 15:00:00 27,8 21,1 0 0 N 1010,4 16 -
13.08.2019 14:00:00 27,2 21,1 - - - 1010,6 16 -
13.08.2019 13:00:00 26,1 21,7 8 4 - 1011,6 16 -
13.08.2019 12:00:00 26,1 22,2 8 4 - 1011,8 16 0,0
13.08.2019 11:00:00 26,7 23,3 8 4 - 1012,2 16 -
13.08.2019 10:00:00 26,1 23,3 8 4 - 1011,5 16 -
13.08.2019 09:00:00 26,7 22,8 11 6 WNW 1011,7 16 -
13.08.2019 08:00:00 24,4 22,2 0 0 N 1010,1 16 -
13.08.2019 07:00:00 23,9 21,7 5 3 - 1010,1 16 -
13.08.2019 06:00:00 22,8 22,2 - - - 1010,1 16 0,0
13.08.2019 05:00:00 23,3 22,2 0 0 N 1009,7 16 -
13.08.2019 04:00:00 23,3 22,2 0 0 N 1010,1 16 -
13.08.2019 03:00:00 23,3 21,7 0 0 N 1011,1 16 -
13.08.2019 02:00:00 23,3 21,1 0 0 N 1011,6 16 -
13.08.2019 01:00:00 23,9 20,6 0 0 N 1011,9 16 -
13.08.2019 00:00:00 24,4 20,6 0 0 N 1011,9 16 -
12.08.2019 23:00:00 24,4 20,6 0 0 N 1012,6 16 -
12.08.2019 22:00:00 25,0 20,6 0 0 N 1012,8 16 -
12.08.2019 21:00:00 26,1 20,0 0 0 N 1012,5 16 -
12.08.2019 20:00:00 27,2 20,6 0 0 N 1012,2 16 -
12.08.2019 19:00:00 27,8 21,1 0 0 N 1012,4 16 -
12.08.2019 18:00:00 29,4 21,7 0 0 N 1012,2 16 -
12.08.2019 17:00:00 30,0 21,1 5 3 - 1012,3 16 -
12.08.2019 16:00:00 28,3 21,1 0 0 N 1013,7 16 -
12.08.2019 15:00:00 28,3 20,6 0 0 N 1014,3 16 -
12.08.2019 14:00:00 28,9 20,0 5 3 - 1015,1 16 -
12.08.2019 13:00:00 28,3 19,4 0 0 N 1015,5 16 -
12.08.2019 12:00:00 27,2 20,0 5 3 WNW 1015,6 16 -
12.08.2019 11:00:00 25,6 19,4 0 0 N 1015,8 16 -
12.08.2019 10:00:00 22,2 18,3 0 0 N 1015,8 16 -
12.08.2019 09:00:00 20,6 17,8 0 0 N 1015,5 16 -
12.08.2019 08:00:00 20,0 16,7 0 0 N 1015,2 16 -
12.08.2019 07:00:00 19,4 16,7 0 0 N 1014,6 16 -
12.08.2019 06:00:00 19,4 16,7 0 0 N 1014,5 16 -
12.08.2019 05:00:00 20,0 16,1 0 0 N 1014,6 16 -
12.08.2019 04:00:00 20,0 16,7 5 3 ESE 1014,7 16 -
12.08.2019 03:00:00 20,6 16,7 0 0 N 1014,6 16 -
12.08.2019 02:00:00 20,6 16,7 0 0 N 1015,3 16 -
12.08.2019 01:00:00 21,7 16,7 0 0 N 1015,6 16 -
12.08.2019 00:00:00 22,8 16,1 5 3 ENE 1015,9 16 -
11.08.2019 23:00:00 22,8 16,7 5 3 - 1015,9 16 -
11.08.2019 22:00:00 23,9 16,1 0 0 N 1016,1 16 -
11.08.2019 21:00:00 23,3 17,2 0 0 N 1015,7 16 -

tt = temperature
td = dewpoint
ff = wind speed
dd = wind direction
ppp = reduced air pressure
vv = visibility
rr = precipitation

Next stations